星链-30166 (STARLINK-30166 )

导读 | 豆包AI

STARLINK-30166是美国SpaceX公司于2023年8月11日发射的Starlink(星链)项目卫星,隶属于星链低轨互联网卫星星座。星链项目旨在为全球提供高速宽带互联网服务,尤其为偏远、欠发达地区提供便捷网络接入。STARLINK-30166运行在近地轨道,通过星链大规模星座组网,为全球用户提供低延迟、高速率的互联网接入服务,是SpaceX推进星链全球覆盖计划的组成部分之一。

基本信息
目录编号:
57602
目录名称:
STARLINK-30166
国际标识:
2023-119A
轨道中心:
EARTH
卫星名称:
星链-30166
卫星全名:
星链-30166 (STARLINK-30166 )
卫星状态:
在轨 (已飞行993 天)
发射日期:
2023-08-11 UTC
国别 :
美国 (US)
星等 :
--
轨道信息
数据来源 国际轨道数据 AOE轨道数据
星历时间 2026-04-30T10:45:31+0800
13小时前
查看轨道信息
2026-04-24T09:00:00+0800
6天前
查看轨道信息
半长轴 6861.207km 6861.147km
偏心率 0.0001311 0.0001658
轨道倾角 42.998° 43.002°
近地点辐角 273.259° 278.291°
升交点赤经 150.950° 185.252°
平近点角 86.811° 124.129°
近地点 482.17km 481.872km
远地点 483.97km 484.148km
周期 94.267分钟 94.266分钟
每日圈数 15.275733 15.275931
详细信息
固有亮度:
5
最大亮度:
0.3
卫星平台:
Starlink v2.0 mini
覆盖范围:
全球
运营商:
太空探索技术公司
运营商所在国:
美国
制造商(研发单位):
太空探索技术公司
制造商所在国:
美国
使用方式:
暂无
卫星简介
星链(Starlink)计划是由太空探索技术公司(SpaceX)提出的一个巨型低轨卫星互联网星座项目,计划在2019年至2024年间在太空搭建由约1.2万颗卫星组成的“星链”网络,其中1584颗将部署在地球上空550千米处的近地轨道,并从2020年开始工作。该卫星仍在工作。
2D轨道图
3D轨道图
轨道高度分析图
轨道倾角分析图
轨道综合分析图
查看轨道综合分析图